Location: St. Louis
(38.6270°N, 90.1994°W)
Time: 12:53:46
(UTC-06:00)

deb Explorer IX - Pass Details

Date: 03 December 2021
Orbit: 544 x 1082 km, 38.8° (Epoch: 16 January)

Event Time Altitude Azimuth Distance (km) Brightness Sun altitude
Rises 16:32:29 0° 268° (W) 2,702 ? 0.4°
Reaches altitude 10° 16:36:13 10° 233° (SW) 1,847 ? -0.3°
Maximum altitude 16:37:30 11° 215° (SW) 1,789 ? -0.5°
Drops below altitude 10° 16:38:50 10° 196° (SSW) 1,893 ? -0.7°
Sets 16:42:51 0° 162° (SSE) 2,897 ? -1.4°
